Retour au catalogue

COSMOS 1014

ActifMilitaireLEO
NORAD 10931·PAYLOAD·🇷🇺 Russia

Lancé Jun 7, 1978 depuis Plesetsk Cosmodrome

Loading…

Prochains Passages (prochaines 24 heures)

TLE

FraisSource: Space-Track

Époque: Sep 14, 2026, 06:42 UTC

1 10931U 78056B   26257.27924941 -.00000028  00000-0 -92001-4 0  9998
2 10931  74.0228 259.2695 0032542 141.6329 230.1461 12.40493955185866

Suivez COSMOS 1014 en temps réel avec AllMySat

Download on the App Store